Home > Time Zones > World Clock > Weather > Spain > Ceuta > Past weeks

Flag for Spain Weather past 2 weeks in Ceuta, Ceuta, Spain

Now
75 °F

Passing clouds.


Feels Like: 77 °F
Forecast: 69 / 79 °F
Wind: 10 mph from Southwest

Location: Gibraltar Airport

Current Time: Aug 21, 2014 at 6:51:02 AM

Latest Report: Aug 21, 2014 at 5:50 AM


Visibility: N/A

Pressure: 29.95 "Hg

Humidity: 34%

Dew point: 45 °F

Location of CeutaLocation

Historic Weather in Ceuta — Graph

°F

Ceuta temperature yesterday

Maximum temperature yesterday: 86 °F (at 4:50 PM)
Minimum temperature yesterday: 68 °F (at 12:50 AM)
Average temperature yesterday: 76 °F

Past Weeks' High & Low Weather Summary

 TemperatureHumidityPressure
High86 °F (Aug 11, 3:50 PM)100% (Aug 6, 4:50 PM)30.07 "Hg (Aug 6, 4:50 PM)
Low66 °F (Aug 6, 7:50 AM)25% (Aug 21, 3:50 AM)29.83 "Hg (Aug 8, 7:50 PM)
Average75 °F70%29.96 "Hg
* Reported Aug 6 5:50 AM — Aug 21 5:50 AM, Ceuta, Weather by CustomWeather, © 2014

Note: Actual official high and low records may vary slightly from our data, if they occured in-between our weather recording intervals... More about our weather records

Advertising

Ceuta weather history for previous 24 hours

 ConditionsComfort  
Time TempWeatherWind HumidityBarometerVisibility
5:50 AM
Aug 21
75 °FClear.13 mph34%29.95 "HgN/A
4:50 AM75 °FClear.14 mph29%29.95 "HgN/A
3:50 AM75 °FClear.15 mph25%29.98 "HgN/A
2:50 AM75 °FClear.15 mph31%29.98 "HgN/A
1:50 AM75 °FClear.15 mph27%30.01 "HgN/A
12:50 AM77 °FClear.13 mph26%30.01 "HgN/A
11:50 PM
Aug 20
79 °FClear.14 mph30%30.01 "HgN/A
10:50 PM79 °FClear.10 mph39%29.98 "HgN/A
9:50 PM79 °FSunny.12 mph42%29.98 "Hg10 mi
8:50 PM82 °FSunny.12 mph35%29.95 "Hg10 mi
7:50 PM84 °FSunny.10 mph35%29.95 "Hg10 mi
6:50 PM86 °FSunny.12 mph33%29.95 "Hg10 mi
5:50 PM86 °FSunny.12 mph38%29.95 "Hg10 mi
4:50 PM86 °FSunny.12 mph38%29.98 "Hg10 mi
3:50 PM84 °FSunny.12 mph43%29.98 "Hg10 mi
2:50 PM84 °FSunny.10 mph40%30.01 "Hg10 mi
1:50 PM81 °FSunny.10 mph45%30.01 "Hg10 mi
12:50 PM81 °FSunny.9 mph45%30.04 "Hg10 mi
11:50 AM77 °FSunny.9 mph54%30.04 "Hg10 mi
10:50 AM73 °FSunny.10 mph69%30.04 "Hg10 mi
9:50 AM72 °FSunny.10 mph73%30.04 "Hg10 mi
8:50 AM70 °FPassing clouds.8 mph73%30.04 "HgN/A
7:50 AM68 °FPassing clouds.7 mph78%30.04 "HgN/A
6:50 AM68 °FClear.12 mph78%30.01 "Hg10 mi
Weather by CustomWeather, © 2014

See weather overviewHow to use our weather pages